User: anonymous   Login
Location: Unspecified
(0.0000°N, 0.0000°E)
Time: 16:44:50
(UTC+00:00)
Language:

Traac - Orbit

View from above orbital plane
View from above orbital plane
View from above satellite
View from above satellite

Ground track
Ground track

The orbit data is extracted from the following two-line orbital elements,

1   205U 61031B   18144.95677877 +.00000030 +00000-0 +95774-5 0  9992
2   205 032.4401 116.4752 0102128 332.6344 026.8924 13.62398915817169
Epoch (UTC): 24 May 2018 22:57:45
Eccentricity: 0.0102128
inclination: 32.4401°
perigee height: 951 km
apogee height: 1102 km
right ascension of ascending node: 116.4752°
argument of perigee: 332.6344°
revolutions per day: 13.62398915
mean anomaly at epoch: 26.8924°
orbit number at epoch: 81716

The dashed part of the orbit path shows where the satellite is in the earth's shadow,  

DLR